When you browse on this site, cookies collect data to enhance your experience and personalize the content and advertising you see.
Visit our Privacy Policy to learn more. By continuing to use the site, you agree to this use of cookies and data.
  • In United Kingdom
  • List of Countries
  • For 7 days
  • Water Temperature
  • Satellite Maps
  • Weather Map
  • Weather Widgets
  • user-avatar
    Login

    Hourly Weather Bucaramanga

    Today, 20 June, Thursday

    Time Temperature Precipitation Wind Pressure Humidity
    00:00 +23°C° 0.2 mm 2 mps 673 mmHg 83%
    01:00 +23°C° 0.2 mm 2 mps 672 mmHg 82%
    02:00 +23°C° 0.1 mm 2 mps 672 mmHg 82%
    03:00 +21°C° 0.1 mm 2 mps 672 mmHg 81%
    04:00 +21°C° 0.1 mm 2 mps 672 mmHg 81%
    05:00 +23°C° 0.1 mm 1 mps 672 mmHg 80%
    06:00 +23°C° 0.1 mm 1 mps 673 mmHg 79%
    07:00 +24°C° 0.1 mm 1 mps 673 mmHg 79%
    08:00 +25°C° 0.3 mm 1 mps 674 mmHg 76%
    09:00 +26°C° 0.3 mm 1 mps 674 mmHg 73%
    10:00 +28°C° 0.3 mm 1 mps 675 mmHg 70%
    11:00 +28°C° 0.3 mm 1 mps 675 mmHg 71%
    12:00 +28°C° 0.3 mm 1 mps 674 mmHg 72%
    13:00 +28°C° 0.3 mm 1 mps 674 mmHg 73%
    14:00 +28°C° 0.9 mm 1 mps 673 mmHg 74%
    15:00 +28°C° 0.9 mm 1 mps 673 mmHg 76%
    16:00 +27°C° 0.9 mm 1 mps 672 mmHg 77%
    17:00 +26°C° 0.7 mm 1 mps 673 mmHg 79%
    18:00 +25°C° 0.7 mm 1 mps 673 mmHg 81%
    19:00 +24°C° 0.7 mm 1 mps 673 mmHg 84%
    20:00 +24°C° 0.1 mm 2 mps 673 mmHg 82%
    21:00 +23°C° 0.1 mm 2 mps 673 mmHg 81%
    22:00 +23°C° 0.1 mm 2 mps 674 mmHg 80%
    23:00 +23°C° 0 mm 2 mps 674 mmHg 79%

    Tomorrow, 21 June, Friday

    Time Temperature Precipitation Wind Pressure Humidity
    00:00 +23°C° 0 mm 2 mps 673 mmHg 77%
    01:00 +21°C° 0 mm 2 mps 673 mmHg 76%
    02:00 +21°C° 0.2 mm 2 mps 673 mmHg 76%
    03:00 +21°C° 0.2 mm 2 mps 673 mmHg 77%
    04:00 +22°C° 0.2 mm 1 mps 673 mmHg 77%
    05:00 +23°C° 0.1 mm 1 mps 673 mmHg 76%
    06:00 +24°C° 0.1 mm 1 mps 674 mmHg 76%
    07:00 +24°C° 0.1 mm 1 mps 674 mmHg 75%
    08:00 +26°C° 0 mm 1 mps 675 mmHg 69%
    09:00 +28°C° 0 mm 1 mps 675 mmHg 64%
    10:00 +29°C° 0 mm 1 mps 676 mmHg 58%
    11:00 +29°C° 0.5 mm 1 mps 675 mmHg 62%
    12:00 +29°C° 0.5 mm 1 mps 675 mmHg 65%
    13:00 +29°C° 0.5 mm 2 mps 674 mmHg 69%
    14:00 +29°C° 1.1 mm 1 mps 674 mmHg 72%
    15:00 +28°C° 1.1 mm 1 mps 673 mmHg 74%
    16:00 +28°C° 1.1 mm 1 mps 673 mmHg 77%
    17:00 +26°C° 1.5 mm 1 mps 673 mmHg 80%
    18:00 +25°C° 1.5 mm 2 mps 673 mmHg 84%
    19:00 +23°C° 1.5 mm 2 mps 673 mmHg 87%
    20:00 +23°C° 0.3 mm 2 mps 674 mmHg 86%
    21:00 +23°C° 0.3 mm 2 mps 674 mmHg 84%
    22:00 +23°C° 0.3 mm 2 mps 675 mmHg 82%
    23:00 +21°C° 0 mm 2 mps 674 mmHg 80%

    Day after tomorrow, 22 June, Saturday

    Time Temperature Precipitation Wind Pressure Humidity
    00:00 +21°C° 0 mm 2 mps 674 mmHg 79%
    01:00 +21°C° 0 mm 2 mps 674 mmHg 78%
    02:00 +21°C° 0 mm 2 mps 673 mmHg 78%
    03:00 +22°C° 0 mm 1 mps 673 mmHg 78%
    04:00 +22°C° 0 mm 1 mps 673 mmHg 78%
    05:00 +22°C° 0 mm 1 mps 674 mmHg 77%
    06:00 +23°C° 0 mm 1 mps 674 mmHg 77%
    07:00 +24°C° 0 mm 1 mps 675 mmHg 76%
    08:00 +26°C° 0 mm 1 mps 675 mmHg 70%
    09:00 +27°C° 0 mm 1 mps 676 mmHg 65%
    10:00 +29°C° 0 mm 1 mps 676 mmHg 60%
    11:00 +29°C° 0.3 mm 1 mps 676 mmHg 61%
    12:00 +29°C° 0.3 mm 1 mps 675 mmHg 63%
    13:00 +29°C° 0.3 mm 1 mps 674 mmHg 65%
    14:00 +29°C° 0.4 mm 1 mps 674 mmHg 67%
    15:00 +29°C° 0.4 mm 1 mps 673 mmHg 70%
    16:00 +28°C° 0.4 mm 1 mps 673 mmHg 72%
    17:00 +27°C° 0.4 mm 1 mps 673 mmHg 76%
    18:00 +25°C° 0.4 mm 1 mps 673 mmHg 79%
    19:00 +24°C° 0.4 mm 1 mps 673 mmHg 83%
    20:00 +23°C° 0.5 mm 2 mps 674 mmHg 83%
    21:00 +23°C° 0.5 mm 2 mps 674 mmHg 82%
    22:00 +23°C° 0.5 mm 2 mps 674 mmHg 82%
    23:00 +21°C° 0.3 mm 2 mps 674 mmHg 81%

    23 June, Sunday

    Time Temperature Precipitation Wind Pressure Humidity
    00:00 +21°C° 0.3 mm 2 mps 674 mmHg 81%
    01:00 +21°C° 0.3 mm 2 mps 673 mmHg 80%
    02:00 +20°C° 0.3 mm 2 mps 673 mmHg 80%
    03:00 +20°C° 0.3 mm 2 mps 673 mmHg 79%
    04:00 +20°C° 0.3 mm 2 mps 672 mmHg 79%
    05:00 +21°C° 0.1 mm 2 mps 673 mmHg 78%
    06:00 +23°C° 0.1 mm 2 mps 673 mmHg 77%
    07:00 +23°C° 0.1 mm 1 mps 674 mmHg 76%
    08:00 +25°C° 0 mm 1 mps 674 mmHg 70%
    09:00 +27°C° 0 mm 1 mps 675 mmHg 64%
    10:00 +28°C° 0 mm 1 mps 675 mmHg 58%
    11:00 +29°C° 0.2 mm 1 mps 675 mmHg 61%
    12:00 +29°C° 0.2 mm 1 mps 674 mmHg 63%
    13:00 +29°C° 0.2 mm 2 mps 673 mmHg 66%
    14:00 +28°C° 1 mm 1 mps 673 mmHg 70%
    15:00 +28°C° 1 mm 1 mps 672 mmHg 73%
    16:00 +27°C° 1 mm 1 mps 672 mmHg 77%
    17:00 +26°C° 1.4 mm 1 mps 672 mmHg 81%
    18:00 +25°C° 1.4 mm 1 mps 672 mmHg 84%
    19:00 +24°C° 1.4 mm 1 mps 672 mmHg 88%
    20:00 +23°C° 1.1 mm 1 mps 673 mmHg 88%
    21:00 +23°C° 1.1 mm 1 mps 673 mmHg 89%
    22:00 +23°C° 1.1 mm 1 mps 673 mmHg 89%
    23:00 +23°C° 0.4 mm 1 mps 673 mmHg 88%

    24 June, Monday

    Time Temperature Precipitation Wind Pressure Humidity
    00:00 +23°C° 0.4 mm 1 mps 673 mmHg 87%
    01:00 +22°C° 0.4 mm 1 mps 672 mmHg 87%
    02:00 +22°C° 0.5 mm 1 mps 672 mmHg 87%
    03:00 +22°C° 0.5 mm 1 mps 672 mmHg 86%
    04:00 +22°C° 0.5 mm 1 mps 672 mmHg 86%
    05:00 +23°C° 0.1 mm 1 mps 672 mmHg 85%
    06:00 +23°C° 0.1 mm 1 mps 673 mmHg 84%
    07:00 +24°C° 0.1 mm 1 mps 673 mmHg 83%
    08:00 +25°C° 0.1 mm 1 mps 674 mmHg 80%
    09:00 +26°C° 0.1 mm 1 mps 674 mmHg 76%
    10:00 +27°C° 0.1 mm 1 mps 675 mmHg 73%
    11:00 +28°C° 0.8 mm 1 mps 674 mmHg 73%
    12:00 +28°C° 0.8 mm 1 mps 674 mmHg 72%
    13:00 +28°C° 0.8 mm 1 mps 673 mmHg 72%
    14:00 +28°C° 1.1 mm 1 mps 672 mmHg 76%
    15:00 +27°C° 1.1 mm 1 mps 672 mmHg 80%
    16:00 +27°C° 1.1 mm 1 mps 671 mmHg 84%
    17:00 +26°C° 2.1 mm 1 mps 671 mmHg 85%
    18:00 +25°C° 2.1 mm 1 mps 672 mmHg 87%
    19:00 +23°C° 2.1 mm 1 mps 672 mmHg 89%
    20:00 +23°C° 0.6 mm 1 mps 672 mmHg 88%
    21:00 +23°C° 0.6 mm 1 mps 673 mmHg 87%
    22:00 +22°C° 0.6 mm 1 mps 673 mmHg 86%
    23:00 +22°C° 1.3 mm 1 mps 673 mmHg 86%

    25 June, Tuesday

    Time Temperature Precipitation Wind Pressure Humidity
    00:00 +22°C° 1.3 mm 1 mps 673 mmHg 86%
    01:00 +22°C° 1.3 mm 1 mps 672 mmHg 85%
    02:00 +22°C° 0.4 mm 1 mps 672 mmHg 85%
    03:00 +22°C° 0.4 mm 1 mps 672 mmHg 86%
    04:00 +22°C° 0.4 mm 1 mps 672 mmHg 86%
    05:00 +22°C° 0.1 mm 1 mps 672 mmHg 85%
    06:00 +23°C° 0.1 mm 1 mps 673 mmHg 84%
    07:00 +21°C° 0.1 mm 0 mps 673 mmHg 84%
    08:00 +24°C° 0.1 mm 1 mps 674 mmHg 81%
    09:00 +26°C° 0.1 mm 1 mps 674 mmHg 78%
    10:00 +27°C° 0.1 mm 1 mps 674 mmHg 76%
    11:00 +27°C° 0.5 mm 1 mps 674 mmHg 75%
    12:00 +27°C° 0.5 mm 2 mps 673 mmHg 75%
    13:00 +28°C° 0.5 mm 2 mps 672 mmHg 75%
    14:00 +27°C° 0.8 mm 2 mps 672 mmHg 77%
    15:00 +27°C° 0.8 mm 1 mps 672 mmHg 79%
    16:00 +26°C° 0.8 mm 1 mps 671 mmHg 81%
    17:00 +26°C° 2 mm 1 mps 671 mmHg 85%
    18:00 +25°C° 2 mm 1 mps 672 mmHg 88%
    19:00 +24°C° 2 mm 1 mps 672 mmHg 92%
    20:00 +23°C° 0.9 mm 1 mps 672 mmHg 92%
    21:00 +23°C° 0.9 mm 1 mps 673 mmHg 92%
    22:00 +23°C° 0.9 mm 1 mps 673 mmHg 92%
    23:00 +22°C° 1 mm 1 mps 673 mmHg 91%
    Show more